When you browse on this site, cookies collect data to enhance your experience and personalize the content and advertising you see.
Visit our Privacy Policy to learn more. By continuing to use the site, you agree to this use of cookies and data.
  • In Hungary
  • List of Countries
  • For 7 days
  • Water Temperature
  • Weather Map
  • News
  • Weather Widgets
  • user-avatar
    Login

    Hourly Weather Makiivka

    Today, 22 November, Friday

    Time Temperature Precipitation Wind Pressure Humidity
    00:00 -13°C° 0 mm 8 mps 761 mmHg 38%
    01:00 -13°C° 0 mm 8 mps 761 mmHg 40%
    02:00 -13°C° 0 mm 8 mps 761 mmHg 43%
    03:00 -13°C° 0 mm 8 mps 762 mmHg 46%
    04:00 -13°C° 0 mm 8 mps 761 mmHg 48%
    05:00 -15°C° 0 mm 8 mps 761 mmHg 50%
    06:00 -15°C° 0 mm 8 mps 761 mmHg 52%
    07:00 -13°C° 0 mm 8 mps 761 mmHg 51%
    08:00 -13°C° 0 mm 8 mps 761 mmHg 50%
    09:00 -14°C° 0 mm 9 mps 761 mmHg 49%
    10:00 -12°C° 0 mm 9 mps 761 mmHg 44%
    11:00 -10°C° 0 mm 9 mps 761 mmHg 39%
    12:00 -9°C° 0 mm 9 mps 761 mmHg 34%
    13:00 -8°C° 0 mm 8 mps 761 mmHg 32%
    14:00 -7°C° 0 mm 8 mps 760 mmHg 31%
    15:00 -7°C° 0 mm 8 mps 760 mmHg 30%
    16:00 -7°C° 0 mm 8 mps 760 mmHg 33%
    17:00 -8°C° 0 mm 8 mps 760 mmHg 36%
    18:00 -9°C° 0 mm 7 mps 760 mmHg 38%
    19:00 -9°C° 0 mm 7 mps 760 mmHg 39%
    20:00 -11°C° 0 mm 8 mps 760 mmHg 39%
    21:00 -11°C° 0 mm 8 mps 760 mmHg 39%
    22:00 -11°C° 0 mm 8 mps 760 mmHg 38%
    23:00 -11°C° 0 mm 7 mps 759 mmHg 37%

    Tomorrow, 23 November, Saturday

    Time Temperature Precipitation Wind Pressure Humidity
    00:00 -12°C° 0 mm 7 mps 759 mmHg 36%
    01:00 -12°C° 0 mm 7 mps 759 mmHg 36%
    02:00 -12°C° 0 mm 7 mps 759 mmHg 37%
    03:00 -12°C° 0 mm 7 mps 759 mmHg 38%
    04:00 -12°C° 0 mm 7 mps 759 mmHg 38%
    05:00 -12°C° 0 mm 7 mps 758 mmHg 39%
    06:00 -12°C° 0 mm 7 mps 758 mmHg 39%
    07:00 -12°C° 0 mm 7 mps 758 mmHg 39%
    08:00 -11°C° 0 mm 7 mps 758 mmHg 38%
    09:00 -11°C° 0 mm 8 mps 759 mmHg 37%
    10:00 -10°C° 0 mm 8 mps 758 mmHg 33%
    11:00 -7°C° 0 mm 8 mps 758 mmHg 28%
    12:00 -6°C° 0 mm 8 mps 758 mmHg 24%
    13:00 -5°C° 0 mm 8 mps 757 mmHg 23%
    14:00 -4°C° 0 mm 8 mps 757 mmHg 22%
    15:00 -4°C° 0 mm 8 mps 757 mmHg 21%
    16:00 -4°C° 0 mm 7 mps 757 mmHg 23%
    17:00 -6°C° 0 mm 7 mps 756 mmHg 26%
    18:00 -7°C° 0 mm 7 mps 756 mmHg 28%
    19:00 -7°C° 0 mm 7 mps 756 mmHg 29%
    20:00 -7°C° 0 mm 7 mps 756 mmHg 30%
    21:00 -7°C° 0 mm 7 mps 757 mmHg 31%
    22:00 -8°C° 0 mm 7 mps 756 mmHg 31%
    23:00 -8°C° 0 mm 7 mps 756 mmHg 32%

    Day after tomorrow, 24 November, Sunday

    Time Temperature Precipitation Wind Pressure Humidity
    00:00 -8°C° 0 mm 7 mps 756 mmHg 33%
    01:00 -8°C° 0 mm 7 mps 756 mmHg 34%
    02:00 -8°C° 0 mm 7 mps 756 mmHg 35%
    03:00 -8°C° 0 mm 7 mps 756 mmHg 37%
    04:00 -8°C° 0 mm 7 mps 755 mmHg 39%
    05:00 -8°C° 0 mm 7 mps 755 mmHg 42%
    06:00 -8°C° 0 mm 7 mps 755 mmHg 45%
    07:00 -8°C° 0 mm 7 mps 755 mmHg 47%
    08:00 -8°C° 0 mm 7 mps 755 mmHg 48%
    09:00 -8°C° 0 mm 7 mps 755 mmHg 50%
    10:00 -6°C° 0 mm 7 mps 755 mmHg 47%
    11:00 -5°C° 0 mm 8 mps 755 mmHg 45%
    12:00 -2°C° 0 mm 8 mps 755 mmHg 42%
    13:00 -2°C° 0 mm 7 mps 755 mmHg 40%
    14:00 -2°C° 0 mm 7 mps 754 mmHg 39%
    15:00 -1°C° 0 mm 7 mps 754 mmHg 37%
    16:00 -2°C° 0 mm 7 mps 754 mmHg 38%
    17:00 -3°C° 0 mm 6 mps 754 mmHg 39%
    18:00 -4°C° 0 mm 6 mps 754 mmHg 40%
    19:00 -5°C° 0 mm 6 mps 754 mmHg 41%
    20:00 -5°C° 0 mm 6 mps 754 mmHg 43%
    21:00 -5°C° 0 mm 6 mps 754 mmHg 45%
    22:00 -5°C° 0 mm 6 mps 753 mmHg 48%
    23:00 -6°C° 0 mm 6 mps 753 mmHg 52%

    25 November, Monday

    Time Temperature Precipitation Wind Pressure Humidity
    00:00 -6°C° 0 mm 6 mps 753 mmHg 55%
    01:00 -6°C° 0 mm 6 mps 753 mmHg 59%
    02:00 -6°C° 0 mm 6 mps 753 mmHg 62%
    03:00 -6°C° 0 mm 6 mps 752 mmHg 66%
    04:00 -6°C° 0 mm 6 mps 752 mmHg 67%
    05:00 -6°C° 0 mm 6 mps 752 mmHg 69%
    06:00 -6°C° 0 mm 6 mps 752 mmHg 70%
    07:00 -6°C° 0 mm 6 mps 752 mmHg 71%
    08:00 -6°C° 0 mm 7 mps 752 mmHg 71%
    09:00 -6°C° 0 mm 7 mps 752 mmHg 72%
    10:00 -4°C° 0 mm 7 mps 752 mmHg 69%
    11:00 -3°C° 0 mm 7 mps 752 mmHg 66%
    12:00 -1°C° 0 mm 8 mps 751 mmHg 63%
    13:00 -1°C° 0 mm 7 mps 751 mmHg 62%
    14:00 -1°C° 0 mm 7 mps 751 mmHg 61%
    15:00 0°C° 0 mm 7 mps 750 mmHg 61%
    16:00 -1°C° 0 mm 6 mps 750 mmHg 62%
    17:00 -2°C° 0 mm 6 mps 750 mmHg 64%
    18:00 -3°C° 0 mm 6 mps 750 mmHg 65%
    19:00 -3°C° 0 mm 6 mps 750 mmHg 65%
    20:00 -4°C° 0 mm 6 mps 750 mmHg 64%
    21:00 -4°C° 0 mm 6 mps 750 mmHg 63%
    22:00 -4°C° 0 mm 6 mps 750 mmHg 63%
    23:00 -5°C° 0 mm 6 mps 749 mmHg 64%

    26 November, Tuesday

    Time Temperature Precipitation Wind Pressure Humidity
    00:00 -5°C° 0 mm 6 mps 749 mmHg 65%
    01:00 -5°C° 0 mm 5 mps 749 mmHg 66%
    02:00 -5°C° 0 mm 5 mps 749 mmHg 68%
    03:00 -6°C° 0 mm 5 mps 749 mmHg 69%
    04:00 -6°C° 0 mm 5 mps 749 mmHg 72%
    05:00 -6°C° 0 mm 5 mps 748 mmHg 76%
    06:00 -6°C° 0 mm 5 mps 748 mmHg 79%
    07:00 -5°C° 0 mm 6 mps 748 mmHg 81%
    08:00 -5°C° 0 mm 6 mps 748 mmHg 82%
    09:00 -4°C° 0 mm 6 mps 748 mmHg 84%
    10:00 -3°C° 0 mm 6 mps 748 mmHg 83%
    11:00 -2°C° 0 mm 6 mps 748 mmHg 82%
    12:00 -1°C° 0 mm 6 mps 748 mmHg 81%
    13:00 -1°C° 0 mm 6 mps 747 mmHg 80%
    14:00 -1°C° 0 mm 6 mps 747 mmHg 79%
    15:00 -1°C° 0 mm 6 mps 746 mmHg 79%
    16:00 -1°C° 0 mm 6 mps 746 mmHg 80%
    17:00 0°C° 0 mm 5 mps 746 mmHg 81%
    18:00 0°C° 0 mm 5 mps 746 mmHg 82%
    19:00 -1°C° 0 mm 5 mps 746 mmHg 83%
    20:00 -1°C° 0 mm 5 mps 746 mmHg 84%
    21:00 -1°C° 0 mm 5 mps 746 mmHg 84%
    22:00 -1°C° 0 mm 5 mps 746 mmHg 84%
    23:00 -2°C° 0 mm 5 mps 745 mmHg 84%

    27 November, Wednesday

    Time Temperature Precipitation Wind Pressure Humidity
    00:00 -2°C° 0 mm 5 mps 745 mmHg 84%
    01:00 -2°C° 0 mm 5 mps 745 mmHg 85%
    02:00 -2°C° 0 mm 5 mps 745 mmHg 85%
    03:00 -2°C° 0 mm 5 mps 745 mmHg 86%
    04:00 -2°C° 0 mm 5 mps 745 mmHg 88%
    05:00 -2°C° 0 mm 5 mps 744 mmHg 89%
    06:00 -2°C° 0 mm 5 mps 744 mmHg 91%
    07:00 -2°C° 0 mm 5 mps 744 mmHg 91%
    08:00 -1°C° 0 mm 5 mps 745 mmHg 91%
    09:00 -1°C° 0 mm 6 mps 745 mmHg 91%
    10:00 0°C° 0 mm 5 mps 745 mmHg 88%
    11:00 +1°C° 0 mm 5 mps 745 mmHg 86%
    12:00 +1°C° 0 mm 5 mps 744 mmHg 83%
    13:00 +1°C° 0.7 mm 5 mps 744 mmHg 85%
    14:00 +1°C° 0.7 mm 5 mps 744 mmHg 86%
    15:00 +1°C° 0.7 mm 5 mps 744 mmHg 88%
    16:00 +1°C° 0.9 mm 5 mps 744 mmHg 89%
    17:00 +1°C° 0.9 mm 4 mps 744 mmHg 91%
    18:00 +1°C° 0.9 mm 4 mps 744 mmHg 92%
    19:00 +1°C° 0.3 mm 4 mps 744 mmHg 92%
    20:00 +2°C° 0.3 mm 3 mps 744 mmHg 93%
    21:00 +2°C° 0.3 mm 3 mps 744 mmHg 94%
    22:00 +2°C° 0 mm 3 mps 744 mmHg 94%
    23:00 +2°C° 0 mm 3 mps 744 mmHg 95%
    Show more